sat.trackr.live / text

‹ back to catalog

GAOFEN-9 04

NORAD 46025 · 2020-054A

PAYLOAD ACTIVE UNKNOWN

§ Identity

Operator
Country
PRC
Launch date
2020-08-06
Launch site
JSC
Launch vehicle
Mass (kg)
RCS (m²)

External: N2YO · Heavens-Above · Gunter

§ Orbital elements

Epoch: 2026-09-20T04:29:58.462080Z

Period
93.56 min
Inclination
97.2340°
Eccentricity
0.0011499
Mean motion
15.39137590 rev/d
Perigee alt
440.8 km
Apogee alt
456.5 km
Semi-major
6,826.8 km
B*
2.3410e-4
RAAN
330.9011°
Arg perigee
107.1077°
Mean anomaly
253.1429°
Rev number
34,096

§ Raw data

GAOFEN-9 041 46025U 20054A   26263.18748220  .00009019  00000+0  23410-3 0  99902 46025  97.2340 330.9011 0011499 107.1077 253.1429 15.39137590340969

JSON: /api/v1/satellites/46025 · /tle

For live sub-satellite position, see the globe view (requires WebGL).

§ Visibility from observer

Set your observer location to see the next 7 days of passes ≥ 10°. The values pass through the URL so the page stays shareable.

No JS? Fill the form by hand. The geolocation button needs JavaScript.